Location: Utrecht
(52.0830°N, 5.1330°E)
Time: 03:22:51
(UTC+02:00)

Daily predictions for brighter satellites

Satellite Brightness Start Highest point End
(mag) Time Altitude Azimuth Time Altitude Azimuth Time Altitude Azimuth
Cosmos 1766 4.5 00:06:20 36° NNE 00:06:20 36° NNE 00:08:49 10° NNE
Meteor 1-22 Rocket 4.1 00:06:15 71° SSE 00:06:47 78° E 00:12:24 10° NNE
Cosmos 1766 Rocket 3.7 00:02:41 10° N 00:06:44 71° N 00:06:44 71° N
Cosmos 1538 Rocket 3.9 00:07:08 79° SE 00:07:16 80° ESE 00:12:41 10° NNE
Cosmos 1818 4.5 00:03:06 10° NW 00:08:20 43° NE 00:09:53 35° ENE
Cosmos 2360 Rocket 2.0 00:09:11 74° SE 00:09:21 74° ESE 00:15:02 10° NNE
Cosmos 1980 Rocket 4.1 00:04:37 10° WSW 00:09:35 30° NW 00:14:35 10° NNE
IGS 5A 4.5 00:09:57 38° W 00:09:57 38° W 00:13:42 10° NNW
Cosmos 2056 Rocket 4.3 00:06:23 10° NNW 00:11:25 41° NE 00:12:02 40° ENE
ATLAS CENTAUR R/B 4.1 00:12:34 10° NW 00:16:00 19° NNE 00:19:16 10° ENE
Cosmos 1371 Rocket 4.3 00:12:52 10° NNW 00:18:00 56° ENE 00:18:10 56° ENE
In-Cosmos 22 4.0 00:13:52 10° NNW 00:19:24 89° WSW 00:19:43 81° S
Cosmos 1464 Rocket 4.1 00:18:32 51° SSW 00:20:14 74° WNW 00:26:36 10° N
Cosmos 1513 Rocket 4.4 00:20:20 62° SSW 00:21:29 85° W 00:27:50 10° N
Cosmos 773 Rocket 4.2 00:22:23 61° ENE 00:22:23 61° ENE 00:27:00 10° NNE
CZ-4B R/B 3.7 00:23:00 21° NNE 00:23:00 21° NNE 00:24:52 10° N
ATLAS CENTAUR R/B 4.5 00:19:35 43° SSE 00:23:00 56° ESE 00:48:32 10° NE
Nadezhda 4 Rocket 3.9 00:21:12 10° NNW 00:27:33 82° W 00:28:28 67° SSW
GEOS 3 Rocket 3.6 00:22:42 10° NE 00:27:21 72° ENE 00:27:21 72° ENE
Cosmos 2263 Rocket 3.9 00:24:30 10° NW 00:28:31 21° W 00:29:28 20° WSW
Cosmos 2219 Rocket 3.5 00:30:26 26° ENE 00:30:26 26° ENE 00:33:41 10° NE
Cosmos 1627 Rocket 4.5 00:34:09 10° N 00:40:17 65° ENE 00:40:43 63° E
Cosmos 2322 Rocket 3.6 00:38:14 10° WSW 00:43:20 35° NW 00:48:30 10° NNE
Cosmos 1624 Rocket 4.1 00:39:08 10° NNW 00:44:14 72° NE 00:44:14 72° NE
Meteor 2-12 Rocket 4.3 00:46:32 70° SW 00:47:11 80° WNW 00:53:23 10° N
SL-16 R/B 4.3 00:50:27 13° E 00:50:27 13° E 00:52:00 10° ENE
Cosmos 2322 3.9 00:48:25 56° WSW 00:49:22 67° NW 00:55:06 10° NNE
Cosmos 2237 Rocket 3.5 00:52:25 27° ENE 00:52:25 27° ENE 00:55:52 10° NE
Cosmos 2297 4.1 00:46:20 10° NNW 00:51:59 53° NE 00:52:35 51° ENE
Cosmos 2333 4.4 00:53:28 60° ENE 00:53:28 60° ENE 00:58:29 10° NE
Cosmos 2026 Rocket 3.9 00:47:28 10° N 00:53:38 72° ENE 00:53:56 70° E
Cosmos 2333 Rocket 3.2 00:57:36 34° E 00:57:36 34° E 01:01:36 10° NE
Cosmos 1500 Rocket 4.4 00:52:30 10° NNW 00:55:39 47° NNW 00:55:39 47° NNW
Cosmos 2058 4.5 00:53:59 10° N 00:56:42 30° NE 00:56:42 30° NE
Cosmos-2242 4.0 01:00:00 45° N 01:00:00 45° N 01:03:05 10° N
Cosmos 2221 4.5 01:03:51 22° ENE 01:03:51 22° ENE 01:06:03 10° NNE
CZ-3A R/B 4.5 00:51:43 10° SSW 01:10:31 29° ESE 01:13:07 10° ENE
Cosmos 2112 Rocket 4.2 01:08:48 66° NE 01:08:48 66° NE 01:13:25 10° NNE
ALOS 2 3.5 01:11:22 45° NW 01:11:22 45° NW 01:14:33 10° NNW
Cosmos 2195 Rocket 4.3 01:04:00 10° NNW 01:10:12 81° W 01:10:26 79° SW
Cosmos 1452 Rocket 4.0 01:06:04 10° NNW 01:11:13 54° NE 01:11:13 54° NE
COSMOS 2428 2.7 01:12:51 80° NW 01:12:51 80° NW 01:18:32 10° NNE
Cosmos 1470 4.5 01:16:04 31° NNE 01:16:04 31° NNE 01:18:14 10° NNE
Cosmos 304 Rocket 4.4 01:15:21 50° NW 01:15:21 50° NW 01:19:44 10° NNE
ATLAS 3B R/B 3.3 01:16:42 46° ESE 01:16:42 46° ESE 01:23:16 10° NE
Cosmos 1428 Rocket 4.4 01:10:41 10° N 01:16:50 71° ENE 01:17:04 70° E
CZ-2C R/B 3.5 01:20:53 51° NE 01:20:53 51° NE 01:25:26 10° N
Cosmos 2278 Rocket 2.5 01:15:28 10° NW 01:20:24 57° W 01:20:24 57° W
Cosmos 1680 Rocket 3.7 01:23:03 68° NW 01:23:03 68° NW 01:28:04 10° NNE
Cosmos 2142 Rocket 4.3 01:23:30 81° SW 01:23:47 85° W 01:30:09 10° N
Cosmos 2151 4.2 01:22:09 10° NNW 01:24:56 40° NNW 01:24:56 40° NNW
Cosmos 1953 4.1 01:30:27 29° NW 01:30:27 29° NW 01:33:07 10° N
Lacrosse 4 Rocket 2.8 01:35:34 38° NW 01:35:34 38° NW 01:39:37 10° NNE
Cosmos 1655 Rocket 4.0 01:29:35 10° NNW 01:35:53 67° W 01:36:05 66° WSW
COSMOS 2455 3.0 01:38:04 62° E 01:38:04 62° E 01:43:24 10° NE
CZ-2C R/B 3.1 01:32:17 10° NNE 01:37:17 56° ENE 01:37:17 56° ENE
Cosmos 1844 Rocket 4.3 01:35:52 10° NW 01:39:14 23° W 01:39:14 23° W
Cosmos 292 Rocket 4.4 01:49:06 53° NNE 01:49:06 53° NNE 01:52:48 10° NNE
Cosmos 1818 4.5 01:46:46 10° NW 01:50:30 40° WNW 01:50:30 40° WNW
Timation 1 Rocket 4.2 01:46:43 10° NNW 01:52:36 86° NW 01:52:36 86° NW
Cosmos 2360 Rocket 3.8 01:50:55 19° W 01:53:55 29° NW 01:58:51 10° NNE
CZ-4B R/B 4.2 01:56:44 17° NW 01:56:44 17° NW 01:57:49 10° NNW
ATLAS CENTAUR R/B 2.7 01:51:49 10° NW 01:55:56 42° NNE 01:55:56 42° NNE
Cosmos 1634 Rocket 4.5 01:58:03 47° W 01:58:49 49° WNW 02:04:58 10° N
Cosmos 1420 Rocket 4.2 01:56:58 10° NNW 02:01:44 69° NNE 02:01:44 69° NNE
Cosmos 2369 Rocket 3.5 01:57:11 10° NNW 02:02:19 35° NE 02:05:21 21° E
Cosmos 2219 Rocket 2.5 02:12:08 55° WNW 02:12:29 56° NW 02:18:04 10° NNE
Cosmos 2279 Rocket 4.1 02:12:31 60° W 02:12:54 61° WNW 02:19:05 10° N
Cosmos 1943 Rocket 4.2 02:09:55 10° NNW 02:14:34 25° NE 02:19:10 10° E
USA 238 DEB 4.0 02:16:38 52° SE 02:16:47 52° ESE 02:23:34 10° NE
USA 238 4.0 02:16:45 52° SE 02:16:53 52° ESE 02:23:40 10° NE
H-2A R/B 4.0 02:19:06 10° N 02:21:50 30° NNW 02:21:50 30° NNW
Aureole 2 Rocket 4.2 02:24:33 37° NE 02:24:33 37° NE 02:27:22 10° NNE
CZ-4C R/B 2.9 02:25:26 42° ESE 02:25:26 42° ESE 02:30:34 10° NE
Cosmos 2266 Rocket 4.0 02:22:30 10° NNW 02:28:51 67° W 02:29:09 66° WSW
SL-16 R/B 2.2 02:32:20 75° E 02:32:20 75° E 02:37:54 10° NNE
Cosmos 2228 Rocket 3.7 02:35:33 57° NNE 02:35:33 57° NNE 02:39:16 10° NNE
Cosmos 2237 Rocket 2.5 02:34:14 56° WNW 02:34:43 58° NW 02:40:22 10° NNE
NOSS 3-3 (A) 4.3 02:30:12 10° NW 02:37:30 83° SW 02:40:11 45° SE
NOSS 3-3 (C) 4.3 02:30:18 10° NW 02:37:35 84° SW 02:40:21 44° SE
Cosmos 1633 Rocket 4.4 02:34:55 10° NNW 02:37:41 33° NW 02:37:41 33° NW
Cosmos 2221 3.8 02:40:44 35° NW 02:40:44 35° NW 02:43:58 10° N
Cosmos 1980 4.2 02:39:36 48° WNW 02:40:17 50° NW 02:45:49 10° NNE
Cosmos 2333 Rocket 2.8 02:39:36 45° WNW 02:40:29 49° NW 02:46:08 10° NNE
Cosmos 1626 4.1 02:37:50 10° NNW 02:39:39 27° NNW 02:39:39 27° NNW
Helios 1A Rocket 4.3 02:38:10 10° N 02:40:57 34° NNW 02:40:57 34° NNW
Cosmos 1607 3.8 02:46:49 72° SSE 02:47:08 74° SE 02:53:17 10° NE
SL-16 R/B 4.1 02:41:54 10° ESE 02:47:09 30° NE 02:52:27 10° N
Cosmos 839 Rocket 4.5 02:39:21 10° NW 02:48:24 88° NE 02:52:05 33° SE
NOSS 3-2 (C) 4.5 02:48:56 31° SE 02:49:28 32° ESE 02:55:16 10° NE
Cosmos 1933 Rocket 4.4 02:46:14 10° NNW 02:49:26 46° NNW 02:49:26 46° NNW
ATLAS 5 CENTAUR R/B 4.3 02:52:44 11° ESE 02:53:02 11° ESE 02:54:29 10° E
Cosmos 1269 Rocket 4.0 02:57:05 75° ESE 02:57:05 75° ESE 03:02:23 10° NNE
Cosmos 468 4.4 03:02:37 83° W 03:02:41 83° WNW 03:08:01 10° NNE
Cosmos 1437 Rocket 4.2 03:04:06 33° NW 03:04:06 33° NW 03:07:02 10° N
Cosmos 1867 3.4 03:03:50 84° SSW 03:04:01 89° SE 03:09:34 10° NE
Cosmos 1271 Rocket 4.1 03:06:38 35° E 03:06:38 35° E 03:09:56 10° NNE
ATLAS 3B R/B 3.1 03:03:55 38° WSW 03:06:59 64° NW 03:14:13 10° NE
In-Cosmos 22 Rocket 4.4 03:05:44 10° N 03:11:02 63° ENE 03:12:20 47° SE
CZ-2D R/B 4.4 03:09:05 10° NE 03:12:26 17° E 03:15:37 10° SE
Cosmos 1151 Rocket 3.2 03:13:35 69° NE 03:13:35 69° NE 03:17:32 10° NNE
Cosmos 1603 3.7 03:14:37 61° SSE 03:15:16 67° ESE 03:21:00 10° NE
Lacrosse 4 Rocket 4.3 03:12:56 10° NW 03:15:21 14° NNW 03:17:47 10° NNE
ERBS 4.2 03:17:09 28° ENE 03:17:09 28° ENE 03:18:57 10° ENE
CZ-2C R/B 3.9 03:13:01 10° N 03:17:46 30° WNW 03:18:48 28° W
Cosmos 1356 Rocket 3.8 03:16:04 10° N 03:19:43 59° NE 03:19:43 59° NE
Cosmos 1110 Rocket 3.8 03:15:42 10° NNW 03:20:56 78° WSW 03:21:02 78° SW
COSMOS 2455 3.9 03:21:12 26° W 03:23:46 38° NW 03:29:22 10° NNE
Meteor 2-2 Rocket 4.3 03:32:44 57° SW 03:33:49 71° WNW 03:39:41 10° N
Cosmos 1340 Rocket 3.7 03:30:00 10° NNW 03:32:49 42° NW 03:32:49 42° NW
Cosmos 1908 4.3 03:35:06 37° NW 03:35:06 37° NW 03:38:03 10° N
ATLAS CENTAUR R/B 3.7 03:31:09 10° NW 03:32:13 16° WNW 03:32:13 16° WNW
CBERS-1 4.2 03:30:23 10° NNE 03:35:29 62° ESE 03:36:33 50° SSE
Cosmos 2251 Rocket 3.9 03:35:16 46° SSE 03:36:18 54° ESE 03:41:26 10° NNE
Resurs 1-4 Rocket 3.8 03:33:06 10° NE 03:37:31 26° E 03:40:40 16° SE
NPP 3.7 03:32:17 10° NNE 03:37:43 74° ESE 03:38:57 53° S
Cosmos 1943 3.7 03:40:45 40° SSE 03:42:17 51° ESE 03:47:45 10° NE
Meteor 2-3 Rocket 3.7 03:39:32 10° NNW 03:45:21 86° WSW 03:47:19 44° S
PSLV R/B 4.2 03:41:18 10° N 03:45:55 49° WNW 03:46:16 48° W
Cosmos 1726 2.3 03:46:55 69° NE 03:46:55 69° NE 03:50:20 10° NNE
Cosmos 2369 Rocket 2.2 03:41:09 10° NW 03:46:39 57° WSW 03:47:04 55° SW
Cosmos 1892 3.0 03:47:16 10° N 03:51:07 62° ENE 03:51:30 58° ESE
Cosmos 494 Rocket 4.4 03:52:21 41° SSE 03:53:53 58° ESE 03:59:03 10° NNE
SL-08 R/B 3.7 03:55:40 46° W 03:55:40 46° W 03:59:57 10° NNW
Okean O Rocket 4.4 03:55:23 10° ENE 03:57:28 13° E 03:59:31 10° ESE
Cosmos 2219 Rocket 4.3 03:53:53 10° WNW 03:57:44 18° NNW 04:01:35 10° NNE
Cosmos 1943 Rocket 2.1 03:53:23 10° NNW 03:59:07 89° ENE 04:04:47 10° SSE
Meteor 1-4 Rocket 3.4 04:01:41 40° NW 04:01:41 40° NW 04:04:25 10° N
UNK 3.8 04:02:51 30° SSE 04:05:08 75° ENE 04:09:45 10° NNW
USA 238 DEB 4.1 04:04:04 28° W 04:07:49 57° NNW 04:14:46 10° NE
USA 238 4.1 04:04:11 28° W 04:07:54 57° NNW 04:14:52 10° NE
AQUA 3.8 04:03:48 10° NNE 04:08:35 73° WNW 04:09:40 52° SW
S3M 4.2 04:08:06 39° SW 04:10:11 56° WNW 04:16:27 10° N
Cosmos 1302 Rocket 4.0 04:05:50 10° NNW 04:11:00 58° WSW 04:12:21 44° SSW
Cosmos 1300 3.1 04:12:22 48° WNW 04:12:22 48° WNW 04:16:01 10° N
Cosmos 1869 Rocket 4.3 04:08:52 10° NNW 04:12:41 37° W 04:12:41 37° W
CZ-4C R/B 2.8 04:10:36 31° W 04:13:14 55° NNW 04:19:35 10° NE
SL-16 R/B 3.6 04:14:12 20° W 04:16:53 29° NW 04:21:49 10° NNE
USA 161 4.1 04:20:12 11° NNW 04:20:12 11° NNW 04:20:18 10° NNW
Cosmos 2237 Rocket 4.3 04:16:04 10° WNW 04:20:03 19° NNW 04:24:02 10° NNE
NOSS 3-2 (A) 3.6 04:18:06 35° WSW 04:21:00 78° NW 04:27:58 10° NE
SeaSat 1 3.0 04:18:47 10° SE 04:23:38 59° NE 04:28:30 10° NNW
Cosmos 1455 2.6 04:23:22 35° SSE 04:24:46 60° E 04:28:38 10° NNE
Cosmos 1656 Rocket 3.8 04:19:21 10° NNW 04:24:48 72° ENE 04:30:12 10° SE
Cosmos 2333 Rocket 4.4 04:22:28 10° WNW 04:26:15 17° NNW 04:30:02 10° NNE
Cosmos 1408 4.0 04:23:01 10° N 04:26:33 38° ENE 04:30:05 10° SE
Cosmos 724 4.4 04:24:05 34° SSW 04:26:47 75° SE 04:32:53 10° NE
IRS-1D 3.7 04:21:40 10° NNE 04:26:54 72° ESE 04:29:58 26° S
Spot 4 Rocket 4.0 04:22:34 10° NNE 04:27:46 84° WNW 04:30:06 34° SSW
Cosmos 1709 Rocket 4.0 04:21:46 10° NNW 04:28:05 67° W 04:32:01 24° S
Cosmos 1553 Rocket 4.5 04:25:56 32° WSW 04:28:05 43° WNW 04:33:53 10° N
Meteor 2-10 4.1 04:26:43 30° S 04:29:30 88° ESE 04:34:51 10° NNE
CENTAUR R/B 3.5 04:25:39 20° S 04:29:33 41° ESE 04:36:02 10° NE
SL-16 R/B 2.5 04:25:58 20° S 04:30:23 66° WSW 04:36:37 10° NNW
ARIANE 5 R/B 2.6 04:25:40 10° NNE 04:30:57 80° ESE 04:33:52 27° S
Cosmos 1862 Rocket 4.1 04:28:26 23° SSE 04:31:00 55° E 04:35:21 10° NNE
IRS-1C 4.3 04:28:13 10° N 04:33:29 59° WNW 04:35:44 33° SW
ATLAS 5 CENTAUR R/B 2.2 04:34:18 31° SSW 04:36:32 60° SE 04:41:50 10° NE
Cosmos 2242 Rocket 3.6 04:37:25 37° SSW 04:39:09 68° WNW 04:43:43 10° N
ERS-2 2.1 04:35:57 10° NNE 04:39:42 78° WNW 04:40:47 44° SSW
NOSS 3-2 (C) 3.6 04:36:22 29° WSW 04:39:51 74° NW 04:46:51 10° NE
Cosmos 2292 Rocket 3.5 04:38:09 10° NNW 04:40:27 36° WNW 04:40:27 36° WNW
Cosmos 1184 Rocket 2.9 04:38:49 10° NNW 04:42:13 59° W 04:42:43 52° SW
Cosmos 1271 Rocket 4.1 04:41:51 25° W 04:42:22 26° WNW 04:45:48 10° N
ADEOS 3.8 04:43:22 10° N 04:48:29 55° WNW 04:51:05 28° SW
Cosmos 1733 Rocket 3.2 04:44:16 10° NNW 04:48:33 53° W 04:50:35 28° SSW
Cosmos 2074 Rocket 4.0 04:45:18 10° N 04:51:34 89° E 04:57:49 10° S
Cosmos 1825 2.3 04:47:52 10° N 04:51:42 73° E 04:55:28 10° SSE
ERBS 3.5 04:50:35 21° WNW 04:52:28 40° N 04:55:50 10° ENE
CZ-2D R/B 2.0 04:47:56 10° NNE 04:53:16 86° WNW 04:56:56 20° SSW
Cosmos 2327 Rocket 4.4 04:47:18 10° N 04:53:27 89° E 04:59:38 10° S
ARGOS Delta rocket 4.2 04:50:50 10° NNE 04:55:12 55° E 04:59:29 10° S
Centaur D-1A AC-31 4.3 04:58:23 15° SSW 04:58:23 15° SSW 05:01:51 10° S
Cosmos 2184 Rocket 4.0 04:52:22 10° N 04:58:49 85° W 05:05:11 10° S
ATLAS 3B R/B 4.1 04:52:17 10° WNW 04:59:01 35° NNW 05:05:27 10° NE
Cosmos 1782 Rocket 4.0 04:55:34 10° N 04:59:54 62° ENE 05:04:12 10° SSE
Cosmos 1992 Rocket 4.0 04:57:44 10° NNW 05:02:55 63° WSW 05:08:05 10° S
CZ-2D R/B 3.8 04:59:36 10° NNE 05:04:02 73° ESE 05:07:47 13° S
Abrixas rocket 3.3 05:07:44 27° SSW 05:07:44 27° SSW 05:10:34 10° SE
Cosmos 389 Rocket 2.4 05:10:07 24° SSW 05:12:07 72° WNW 05:15:40 10° N
Resurs 1-4 Rocket 2.3 05:12:32 10° N 05:17:42 57° WNW 05:21:45 17° SW
CZ-2C R/B 3.5 05:13:19 10° S 05:17:45 74° WSW 05:22:13 10° NNW
Cosmos 2278 4.4 05:12:20 10° NNW 05:18:01 59° NE 05:23:41 10° SE
Cosmos 1908 Rocket 3.6 05:15:47 10° NNW 05:20:05 54° W 05:24:20 10° S
Thor Agena Rocket 3.7 05:15:14 10° SSE 05:20:24 80° ENE 05:25:41 10° NNW
Cosmos 1726 4.3 05:21:36 12° WNW 05:22:30 12° WNW 05:24:09 10° NW
Cosmos 2341 Rocket 4.5 05:17:05 10° N 05:23:23 67° ENE 05:29:41 10° SSE
Cosmos 1943 4.0 05:22:35 17° WSW 05:26:32 38° NW 05:31:48 10° NNE
ADEOS II 3.8 05:22:08 10° NNE 05:26:51 32° E 05:31:33 10° SSE
USA 32 4.1 05:22:32 10° S 05:27:46 81° E 05:33:03 10° N
Meteor 1-14 Rocket 4.4 05:24:27 10° NNW 05:30:18 84° ENE 05:36:15 10° SSE
Cosmos 2285 Rocket 4.4 05:26:14 10° NW 05:32:15 43° WSW 05:38:13 10° S
COSMOS 2487 3.9 05:28:59 10° S 05:32:20 37° ESE 05:35:43 10° NE
UNKNOWN OBJECT B 3.1 05:29:10 10° N 05:32:43 43° WNW 05:35:27 16° SW
Cosmos 2369 4.2 05:27:17 10° NNW 05:33:02 68° NE 05:38:45 10° SE
Okean O Rocket 1.7 05:30:01 10° NNE 05:34:31 89° ESE 05:38:59 10° SSW
COSMOS 2406 3.3 05:31:23 11° SSW 05:37:03 89° ESE 05:42:51 10° NNE
CZ-4B R/B 3.3 05:33:35 10° NNE 05:38:55 76° ESE 05:44:13 10° S
Cosmos 1862 4.0 05:35:24 10° NNW 05:39:01 33° W 05:42:36 10° SSW
USA 234 3.4 05:33:54 10° ENE 05:40:28 71° SE 05:46:49 11° SW
ASTRO F (AKARI) 4.3 05:38:01 10° S 05:41:28 68° WSW 05:44:48 10° NNW
SL-27 R/B 2.9 05:38:44 15° SW 05:41:31 49° WNW 05:45:03 10° NNE
Cosmos 1943 Rocket 3.5 05:38:19 10° WNW 05:42:07 19° W 05:45:55 10° SW
Cosmos 2221 Rocket 3.5 05:37:45 10° SSW 05:42:11 81° WNW 05:46:38 10° N
CZ-4B DEB 4.4 05:37:15 10° NNE 05:42:45 76° ESE 05:48:12 10° S
Cosmos 1703 Rocket 3.6 05:39:28 10° SSW 05:43:56 72° WNW 05:48:26 10° N
Okean-O 3.9 05:40:30 10° NNE 05:44:45 42° E 05:48:58 10° S
IRS-1C Rocket 4.1 05:42:51 10° NNE 05:48:09 75° WNW 05:53:24 10° SSW
PSLV R/B 4.3 05:49:23 10° NNE 05:53:43 58° E 05:58:03 10° S
Aureole 3 Rocket 3.4 05:49:24 10° SSW 05:55:22 73° W 05:59:37 10° N
USA 116 4.5 05:51:17 10° SSE 05:56:21 88° WSW 06:01:47 10° NNW
MOZ.5/SAFIR/RUBIN 5/SL-8 4.5 05:52:44 10° SSW 05:56:54 32° W 06:01:06 10° NNW
Cosmos 407 Rocket 3.7 05:52:55 10° SSW 05:58:09 77° ESE 06:03:29 10° NNE
Cosmos 2151 Rocket 3.6 05:55:22 10° N 05:59:48 89° W 06:04:12 10° S
ADEOS Rocket 3.9 05:52:40 10° NNE 06:00:25 73° ESE 06:08:10 10° S
Cosmos 1455 4.1 05:58:25 10° WSW 06:00:54 16° WNW 06:03:23 10° NNW
SeaSat 1 3.3 05:57:14 10° SSW 06:01:27 28° WSW 06:05:42 10° NW
Cosmos 1408 4.0 05:58:43 10° NW 06:01:32 20° W 06:04:22 10° SW
Cosmos 2082 Rocket 4.5 05:57:11 10° SSE 06:01:41 24° ESE 06:06:11 10° NE
SL-16 R/B 4.5 06:00:33 10° NW 06:03:04 13° NNW 06:05:34 10° NNE
CZ-4C R/B 3.9 05:57:46 10° WNW 06:03:06 31° N 06:09:06 10° NE
Cosmos 1933 4.3 06:04:36 10° SW 06:08:19 32° WNW 06:12:02 10° N
ARIANE 5 R/B 4.0 06:05:40 10° N 06:09:31 21° NW 06:13:21 10° WSW
Okean 1-7 3.1 06:06:35 10° SSW 06:10:52 59° WNW 06:15:12 10° N
ERS-2 4.4 06:11:52 10° NW 06:12:49 11° NW 06:13:45 10° WNW
CZ-4B R/B 3.0 06:10:13 10° N 06:13:46 48° WNW 06:17:25 10° SW
SL-16 R/B 4.2 06:12:25 10° WSW 06:15:16 13° W 06:18:08 10° NW
Nadezhda 1 Rocket 4.4 06:10:12 10° SSW 06:16:17 49° WNW 06:22:29 10° N
